DW1564 Weather Reports


time (UTC)temp
F
wind
direction
speed
knots
gust
knots
rain 1hr
in
rain 24hr
in
rain mn
in
humidity
%
barometer
mb
20260906230051 70 105 0.0 4.3 0.00 0.13 0.13 54 1001.2
20260906224553 70 78 0.0 9.6 0.00 0.13 0.13 54 1001.2
20260906223049 70 82 1.7 9.6 0.00 0.13 0.13 55 1001.3
20260906221549 70 71 0.0 7.0 0.00 0.13 0.13 56 1001.4
20260906220047 69 78 0.0 2.6 0.00 0.13 0.13 57 1001.6
20260906214545 70 76 0.9 8.7 0.00 0.13 0.13 56 1001.6
20260906213032 70 90 0.9 15.6 0.00 0.13 0.13 54 1001.8
20260906211531 71 70 0.0 8.7 0.00 0.13 0.13 52 1002.0
20260906210031 72 73 1.7 13.0 0.00 0.13 0.13 51 1001.8
20260906204530 73 82 4.3 15.6 0.00 0.13 0.13 51 1001.9
20260906203028 72 70 0.9 11.3 0.00 0.13 0.13 51 1001.9
20260906201527 72 96 2.6 13.0 0.00 0.13 0.13 50 1002.0
20260906200025 72 79 1.7 13.0 0.00 0.13 0.13 48 1002.0
20260906194524 72 71 2.6 11.3 0.00 0.13 0.13 49 1002.0
20260906193010 73 93 4.3 14.8 0.00 0.13 0.13 47 1002.3
20260906191509 73 110 0.0 1.7 0.00 0.13 0.13 43 1002.3
20260906190006 72 92 1.7 9.6 0.00 0.13 0.13 42 1002.4
20260906184508 73 90 0.0 0.9 0.00 0.13 0.13 41 1002.7
20260906183003 73 88 0.0 5.2 0.00 0.13 0.13 43 1002.9
20260906181602 72 99 0.0 9.6 0.00 0.13 0.13 44 1003.0
20260906180106 71 102 0.0 7.8 0.00 0.13 0.13 46 1003.0
20260906174605 71 104 0.9 7.0 0.00 0.13 0.13 46 1003.4
20260906173046 70 101 1.7 11.3 0.00 0.13 0.13 46 1003.7
20260906171545 71 105 0.9 7.0 0.00 0.13 0.13 48 1004.1
20260906170043 70 105 0.0 6.1 0.00 0.13 0.13 48 1004.3
20260906164543 70 80 0.0 6.1 0.00 0.13 0.13 50 1004.3
20260906163040 69 78 0.9 8.7 0.00 0.13 0.13 52 1004.4
20260906161543 68 78 0.0 7.0 0.00 0.13 0.13 53 1004.3
20260906160033 67 87 1.7 6.1 0.00 0.13 0.13 53 1004.2
20260906154541 66 70 0.0 7.0 0.00 0.13 0.13 55 1004.2
20260906153015 65 96 0.0 2.6 0.00 0.13 0.13 55 1004.3
20260906151513 64 218 0.0 0.9 0.00 0.13 0.13 56 1004.4
20260906150106 64 229 0.0 0.0 0.00 0.13 0.13 55 1004.8
20260906144600 64 229 0.0 0.0 0.00 0.13 0.13 57 1004.7
20260906143110 66 229 0.0 0.0 0.00 0.13 0.13 52 1004.6
20260906141602 64 229 0.0 0.0 0.00 0.13 0.13 56 1004.4
20260906140100 61 229 0.0 0.0 0.00 0.13 0.13 58 1004.4
20260906134558 60 229 0.0 0.0 0.00 0.13 0.13 60 1004.4
20260906133058 59 229 0.0 0.0 0.00 0.13 0.13 59 1004.3
20260906131601 59 229 0.0 0.0 0.00 0.13 0.13 58 1004.2
20260906130050 58 229 0.0 0.0 0.00 0.13 0.13 59 1004.0
20260906124542 57 229 0.0 0.0 0.00 0.13 0.13 62 1003.9
20260906123044 57 229 0.0 0.0 0.00 0.13 0.13 62 1003.8
20260906121540 56 229 0.0 0.0 0.00 0.13 0.13 64 1003.8
20260906120040 55 229 0.0 0.0 0.00 0.13 0.13 66 1003.8
20260906114547 56 229 0.0 0.0 0.00 0.13 0.13 65 1003.8
20260906113039 55 229 0.0 0.0 0.00 0.13 0.13 67 1003.6
20260906111546 54 229 0.0 0.0 0.00 0.13 0.13 67 1003.4
20260906110020 55 229 0.0 0.0 0.00 0.13 0.13 66 1003.3
20260906104534 54 229 0.0 0.0 0.00 0.13 0.13 66 1003.3
20260906103004 54 229 0.0 0.0 0.00 0.13 0.13 67 1003.3
20260906101501 55 229 0.0 0.0 0.00 0.13 0.13 67 1003.1
20260906094546 55 229 0.0 0.0 0.00 0.13 0.13 66 1003.2
20260906093039 55 229 0.0 0.9 0.00 0.13 0.13 68 1003.4
20260906091537 54 229 0.0 0.0 0.00 0.13 0.13 69 1003.3
20260906090034 55 229 0.0 0.0 0.00 0.13 0.13 70 1003.1
20260906084532 54 229 0.0 0.0 0.00 0.13 0.13 71 1003.1
20260906083032 54 229 0.0 0.0 0.00 0.13 0.13 72 1003.0
20260906081531 55 229 0.0 0.0 0.00 0.13 0.13 71 1003.0
20260906080031 56 229 0.0 0.0 0.01 0.13 0.13 68 1003.0
20260906074520 53 229 0.0 0.0 0.02 0.13 0.13 76 1003.1
20260906073023 53 229 0.0 0.0 0.03 0.13 0.13 78 1003.2
20260906071517 51 229 0.0 0.0 0.04 0.13 0.13 82 1003.2
20260906070022 53 149 0.0 0.0 0.04 0.12 0.12 78 1003.2
20260906064517 53 149 0.0 0.9 0.05 0.11 0.11 79 1003.0
20260906063015 53 149 0.0 1.7 0.05 0.10 0.10 80 1003.0
20260906061514 53 149 0.0 1.7 0.05 0.09 0.09 81 1003.2
20260906060013 53 149 0.0 1.7 0.05 0.08 0.08 82 1002.9
20260906054625 53 149 0.0 0.9 0.04 0.06 0.06 82 1002.9
20260906053057 53 149 0.0 0.9 0.03 0.05 0.05 81 1003.1
20260906051555 54 149 0.0 0.9 0.03 0.04 0.04 82 1003.4
20260906044550 56 149 0.9 1.7 0.02 0.02 0.02 81 1003.8
20260906043045 57 149 0.0 1.7 0.02 0.02 0.02 79 1003.9
20260906041541 59 149 0.0 3.5 0.01 0.01 0.01 74 1004.0
20260906040045 64 149 0.0 7.0 0.00 0.00 0.00 62 1003.9
20260906034523 65 158 0.9 6.1 0.00 0.00 0.00 44 1003.1
20260906033019 66 161 0.0 0.0 0.00 0.00 0.00 40 1002.9
20260906031552 66 161 0.0 0.0 0.00 0.00 0.00 39 1002.8
20260906030015 66 161 0.0 0.0 0.00 0.00 0.00 39 1002.6
20260906024534 66 161 0.0 0.0 0.00 0.00 0.00 39 1002.5
20260906023014 66 161 0.0 0.0 0.00 0.00 0.00 38 1002.3
20260906021513 67 161 0.0 0.0 0.00 0.00 0.00 38 1002.2
20260906020013 67 161 0.0 2.6 0.00 0.00 0.00 37 1001.9
20260906014556 68 161 0.0 0.0 0.00 0.00 0.00 36 1001.7
20260906013059 69 161 0.0 0.0 0.00 0.00 0.00 35 1001.4
20260906011536 70 161 0.0 0.0 0.00 0.00 0.00 34 1001.4
20260906010046 71 161 0.0 0.0 0.00 0.00 0.00 34 1001.4
20260906004524 72 161 0.0 0.9 0.00 0.00 0.00 32 1001.7
20260906003024 73 161 0.0 2.6 0.00 0.00 0.00 32 1001.6
20260906001531 74 161 0.0 1.7 0.00 0.00 0.00 30 1001.5
20260906000024 75 161 0.0 2.6 0.00 0.00 0.00 31 1001.4
20260905234523 74 161 0.9 4.3 0.00 0.00 0.00 30 1001.1
20260905233022 74 161 0.0 5.2 0.00 0.00 0.00 30 1001.1
20260905231521 75 161 0.0 3.5 0.00 0.00 0.00 30 1001.0